Mountain Home, ID

7:51 AM MST on January 18, 2018 (GMT -0700)
Mountain Home Air Force Base

Weather History for KMUO - January, 2014

Change the Weather History Date:

Saturday, January 18, 2014

  Actual Average Record
Temperature  
Mean Temperature 29 °F 31 °F  
Max Temperature 41 °F 38 °F 59 °F (1919)
Min Temperature 17 °F 22 °F -13 °F (1917)
Degree Days  
Heating Degree Days 36 34  
Month to date heating degree days 584 634  
Moisture  
Dew Point 24 °F    
Average Humidity 97    
Maximum Humidity 100    
Minimum Humidity 62    
Precipitation  
Precipitation 0.00 in 0.04 in 1.09 in (1953)
Month to date precipitation 0.30 0.70  
Sea Level Pressure  
Sea Level Pressure 30.40 in    
Wind  
Wind Speed 4 mph (North)    
Max Wind Speed 13 mph    
Max Gust Speed -    
Visibility 5 miles    
Events Fog    
T = Trace of Precipitation, MM = Missing Value Source: NWS Daily Summary

Daily Weather History Graph

Daily Weather History Graph

Search for Another Location

Airport or City:

Trip Planner

Search our weather history database for the weather conditions in past years. The results will help you decide how hot, cold, wet, or windy it might be!

Date:

Astronomy

Jan. 18, 2014 Rise Set
Actual Time 8:10 AM MST 5:37 PM MST
Civil Twilight 7:39 AM MST 6:09 PM MST
Nautical Twilight 7:04 AM MST 6:44 PM MST
Astronomical Twilight 6:30 AM MST 7:18 PM MST
Moon 8:29 PM MST 9:07 AM MST
Length of Visible Light 10h 30m
Length of Day
9h 27m
Waning Gibbous, 94% of the Moon is Illuminated
Jan 18
Waning Gibbous
Jan 23
Last Quarter
Jan 30
New
Feb 6
First Quarter
Feb 14
Full

Hourly Weather History & Observations

Time (MST) Temp. Windchill Dew Point Humidity Pressure Visibility Wind Dir Wind Speed Gust Speed Precip Events Conditions
12:03 AM 21.2 °F 16.4 °F 21.2 °F 100% 30.36 in 9.0 mi SE 3.5 mph - N/A   Clear
12:13 AM 23.0 °F 17.0 °F 23.0 °F 100% 30.36 in 10.0 mi ESE 4.6 mph - N/A   Clear
12:43 AM 23.0 °F 17.0 °F 23.0 °F 100% 30.37 in 10.0 mi East 4.6 mph - N/A   Clear
12:53 AM 21.2 °F 14.9 °F 21.2 °F 100% 30.37 in 10.0 mi ESE 4.6 mph - N/A   Clear
12:58 AM 21.6 °F 15.3 °F 21.6 °F 100% 30.46 in 10.0 mi ESE 4.6 mph - N/A   Clear
1:13 AM 21.2 °F 13.6 °F 21.2 °F 100% 30.37 in 9.0 mi ESE 5.8 mph - N/A   Clear
1:23 AM 21.2 °F 16.4 °F 21.2 °F 100% 30.37 in 10.0 mi East 3.5 mph - N/A   Clear
1:43 AM 21.2 °F - 21.2 °F 100% 30.37 in 9.0 mi Calm Calm - N/A   Clear
1:53 AM 21.2 °F - 21.2 °F 100% 30.37 in 10.0 mi Calm Calm - N/A   Clear
1:58 AM 21.9 °F - 21.9 °F 100% 30.46 in 10.0 mi Calm Calm - N/A   Clear
2:58 AM 21.6 °F - 21.6 °F 100% 30.46 in 10.0 mi ENE 2.3 mph - N/A   Clear
3:58 AM 20.5 °F 12.8 °F 20.5 °F 100% 30.47 in 10.0 mi East 5.8 mph - N/A   Clear
4:58 AM 20.1 °F 10.3 °F 20.1 °F 100% 30.48 in 10.0 mi East 8.1 mph - N/A   Clear
5:58 AM 18.3 °F - 18.3 °F 100% 30.49 in 10.0 mi ESE 2.3 mph - N/A   Clear
6:58 AM 17.6 °F 12.3 °F 17.6 °F 100% 30.49 in 10.0 mi East 3.5 mph - N/A   Clear
7:58 AM 17.2 °F 10.2 °F 17.2 °F 100% 30.52 in 10.0 mi ESE 4.6 mph - N/A   Clear
8:58 AM 18.5 °F 10.4 °F 18.5 °F 100% 30.52 in 10.0 mi East 5.8 mph - N/A   Clear
9:58 AM 26.4 °F 19.8 °F 26.4 °F 100% 30.53 in 10.0 mi SE 5.8 mph - N/A   Clear
10:58 AM 29.8 °F 21.5 °F 29.8 °F 100% 30.53 in 10.0 mi SE 9.2 mph - N/A   Clear
11:58 AM 34.5 °F 25.7 °F 30.4 °F 85% 30.52 in 10.0 mi ESE 12.7 mph - N/A   Clear
12:58 PM 37.8 °F 29.8 °F 28.9 °F 71% 30.47 in 10.0 mi ESE 12.7 mph - N/A   Clear
1:58 PM 39.9 °F 37.8 °F 27.9 °F 62% 30.44 in 10.0 mi Variable 3.5 mph - N/A   Clear
2:58 PM 40.5 °F 36.5 °F 28.8 °F 63% 30.43 in 10.0 mi West 5.8 mph - N/A   Clear
3:58 PM 40.6 °F 37.5 °F 29.7 °F 65% 30.42 in 10.0 mi West 4.6 mph - N/A   Clear
4:58 PM 39.0 °F 34.8 °F 30.2 °F 71% 30.43 in 10.0 mi West 5.8 mph - N/A   Clear
5:53 PM 32.0 °F 26.4 °F 32.0 °F 100% 30.34 in 2.5 mi North 5.8 mph - N/A   Clear
5:58 PM 30.4 °F 25.6 °F 30.4 °F 100% 30.44 in 0.5 mi North 4.6 mph - N/A Fog Light Freezing Fog
6:03 PM 30.2 °F 25.4 °F 30.2 °F 100% 30.34 in 0.5 mi North 4.6 mph - N/A Fog Light Freezing Fog
6:40 PM 26.6 °F 20.0 °F 26.6 °F 100% 30.35 in 0.5 mi North 5.8 mph - N/A Fog Light Freezing Fog
6:50 PM 26.6 °F 21.2 °F 26.6 °F 100% 30.34 in 0.8 mi NE 4.6 mph - N/A   Light Freezing Drizzle
6:55 PM 26.6 °F 21.2 °F 26.6 °F 100% 30.33 in 0.5 mi NNE 4.6 mph - N/A Fog Light Freezing Fog
6:58 PM 26.2 °F 20.7 °F 26.2 °F 100% 30.44 in 0.5 mi NE 4.6 mph - 0.00 in Fog Light Freezing Drizzle
7:29 PM 26.6 °F - 26.6 °F 100% 30.33 in 0.8 mi North 2.3 mph - N/A   Mist
7:34 PM 26.6 °F - 26.6 °F 100% 30.33 in 1.0 mi North 2.3 mph - N/A   Mist
7:39 PM 26.6 °F - 26.6 °F 100% 30.33 in 2.0 mi North 1.2 mph - N/A   Scattered Clouds
7:44 PM 26.6 °F - 26.6 °F 100% 30.33 in 3.0 mi NNE 2.3 mph - N/A   Scattered Clouds
7:54 PM 26.6 °F 22.6 °F 26.6 °F 100% 30.32 in 5.0 mi North 3.5 mph - N/A   Partly Cloudy
7:58 PM 26.1 °F - 26.1 °F 100% 30.43 in 6.0 mi North 2.3 mph - 0.00 in   Clear
8:43 PM 24.8 °F 19.1 °F 24.8 °F 100% 30.33 in 0.5 mi NW 4.6 mph - N/A Fog Light Freezing Fog
8:48 PM 24.8 °F 19.1 °F 24.8 °F 100% 30.33 in 0.2 mi NW 4.6 mph - N/A Fog Light Freezing Fog
8:53 PM 24.8 °F 19.1 °F 24.8 °F 100% 30.33 in 0.5 mi NW 4.6 mph - N/A Fog Light Freezing Fog
8:58 PM 24.8 °F 19.1 °F 24.8 °F 100% 30.44 in 1.2 mi NW 4.6 mph - N/A   Scattered Clouds
9:03 PM 23.0 °F 15.8 °F 23.0 °F 100% 30.33 in 1.0 mi NW 5.8 mph - N/A   Mist
9:08 PM 23.0 °F 15.8 °F 23.0 °F 100% 30.33 in 0.8 mi NNW 5.8 mph - N/A   Mist
9:23 PM 23.0 °F 15.8 °F 23.0 °F 100% 30.33 in 0.8 mi NNW 5.8 mph - N/A   Mist
9:28 PM 23.0 °F 18.4 °F 23.0 °F 100% 30.34 in 0.8 mi NW 3.5 mph - N/A   Mist
9:33 PM 23.0 °F 18.4 °F 23.0 °F 100% 30.33 in 0.5 mi NW 3.5 mph - N/A Fog Light Freezing Fog
9:43 PM 23.0 °F 15.8 °F 23.0 °F 100% 30.34 in 0.5 mi NW 5.8 mph - N/A Fog Light Freezing Fog
9:58 PM 23.0 °F 17.0 °F 23.0 °F 100% 30.44 in 0.5 mi West 4.6 mph - 0.00 in Fog Light Freezing Drizzle
10:08 PM 23.0 °F 14.7 °F 23.0 °F 100% 30.34 in 0.2 mi WNW 6.9 mph - N/A Fog Light Freezing Fog
10:28 PM 23.0 °F 17.0 °F 23.0 °F 100% 30.36 in 0.5 mi West 4.6 mph - N/A Fog Light Freezing Fog
10:48 PM 23.0 °F 18.4 °F 23.0 °F 100% 30.35 in 0.5 mi WNW 3.5 mph - N/A Fog Light Freezing Fog
10:58 PM 23.4 °F 18.9 °F 23.4 °F 100% 30.45 in 0.5 mi West 3.5 mph - 0.00 in Fog Light Freezing Drizzle
11:08 PM 23.0 °F 18.4 °F 23.0 °F 100% 30.35 in 0.2 mi West 3.5 mph - N/A Fog Light Freezing Fog
11:13 PM 23.0 °F 18.4 °F 23.0 °F 100% 30.35 in 0.2 mi NW 3.5 mph - N/A Fog Light Freezing Fog
11:58 PM 22.6 °F - 22.6 °F 100% 30.44 in 0.2 mi Calm Calm - N/A Fog Light Freezing Fog